COSMOS 592

Satellite information

Favourite Embed

Satellite Type and Status

PAYLOADIN ORBIT

Key statistics

Satellite COSMOS 592 at a glance.

Uptime

18908

Days in orbit

Revolutions

≈ 12.6

Per day

Orbit

LEO

Low Earth Orbit

Inclination

74.0

Latest

Satellite identification and parameters

Extended collection of information and parameters for COSMOS 592.

Object identification

Identified? True

Debris? False

Object name: COSMOS 592

International designator: 1973-069E

Object number (NORAD): 6849

Object ID (CCSDS): 6849

Country: COMMONWEALTH OF INDEPENDENT STATES (CIS)

Current information (Y/N): Y

RCS size: MEDIUM

Orbital parameters

Period: 113.933 minutes

Inclination: 74.001 deg

SMA: 7785.021 km

Apoapsis: 1483.646 km

Periapsis: 1330.125 km

RAAN: 82.7862 deg

Eccentricy: 0.00986

Argument of periapsis: 164.4734 deg

Mean anomaly: 195.9387 deg

Mean motion: 12.63901171 rev/day

Mean motion (dot): -0.0000001 rev/day2

B* drag term: 0.000034877 1/REarth

Two-line elements (TLE)

Creation date: July 9, 2025, 2:22 a.m.

Reference frame: TEME

Reference center: EARTH

Epoch: July 8, 2025, 8:02 p.m. UTC

TLE line 0: 0 COSMOS 592

TLE line 1: 1 06849U 73069E 25189.83491872 -.00000010 00000-0 34877-4 0 9994

TLE line 2: 2 06849 74.0010 82.7862 0098600 164.4734 195.9387 12.63901171388288

Live tracking on map

Real-time ground track for satellite COSMOS 592.

In-orbit conjunctions

There are no conjunctions computed for COSMOS 592, at the moment. Check back to stay up to date, as we update our databases every day.

Go to all conjunctions

Associated space launch

Military communications satellites

COSMOS 592 was lifted into orbit during the mission ‘Kosmos-3M | Strela-1M 49-56’, on board a Kosmos-3M space rocket.

The launch took place on Oct. 2, 1973, 9:46 p.m. from 132/2.

For more information about the launch, click the button.

Launch to space Kosmos-3M | Strela-1M 49-56
Kosmos-3M | Strela-1M 49-56

Agency: N/A

Status: Launch Successful

Launch date: Oct. 2, 1973, 9:46 p.m. UTC

Rocket: Kosmos-3M

Launch pad: 132/2

Location: Plesetsk Cosmodrome, Russian Federation

...

Latest news about this satellite

There are no fresh news available about this satellite. Check back as we update our databases every day.


Newsletter sign-up

Weekly statistics, charts and insights to help you stay on top of the space industry.